EWG44R EDDL-EGLL

Flight info

Callsign EWG44R
Flight time 0h 56m
Altitude 32000
Route NETEX1U NETEX Z282 DIBIR L179 SASKI L608 LOGAN
Aircraft A20N/M-SDE2E3FGHIRWXY/LB1

Departure

Time 2026-05-04 20:07
Airport Düsseldorf Airport (EDDL)

Arrival

Time 2026-05-04 21:03
Airport London Heathrow Airport (EGLL)
Time Latitude Longitude Altitude Speed Heading
2026-05-04 19:37 51.28154 6.76737 130 ft 0 kts 276°
2026-05-04 19:46 51.28153 6.76761 125 ft 3 kts 276°
2026-05-04 19:47 51.28150 6.76796 128 ft 3 kts 276°
2026-05-04 19:47 51.28147 6.76828 126 ft 2 kts 321°
2026-05-04 19:47 51.28139 6.76835 127 ft 0 kts
2026-05-04 19:49 51.28140 6.76835 127 ft 1 kts
2026-05-04 19:49 51.28164 6.76837 127 ft 6 kts
2026-05-04 19:50 51.28224 6.76847 130 ft 10 kts
2026-05-04 19:50 51.28298 6.76866 127 ft 12 kts
2026-05-04 19:50 51.28383 6.76851 124 ft 13 kts 330°
2026-05-04 19:50 51.28462 6.76774 126 ft 13 kts 350°
2026-05-04 19:51 51.28524 6.76848 124 ft 11 kts 52°
2026-05-04 19:51 51.28568 6.76938 127 ft 10 kts 52°
2026-05-04 19:51 51.28609 6.77026 129 ft 11 kts 53°
2026-05-04 19:51 51.28662 6.77141 126 ft 15 kts 54°
2026-05-04 19:52 51.28733 6.77293 128 ft 19 kts 52°
2026-05-04 19:52 51.28821 6.77480 128 ft 23 kts 53°
2026-05-04 19:52 51.28920 6.77701 127 ft 25 kts 55°
2026-05-04 19:52 51.29026 6.77904 130 ft 16 kts 52°
2026-05-04 19:53 51.29083 6.78028 131 ft 10 kts 53°
2026-05-04 19:53 51.29089 6.78040 131 ft 0 kts 53°
2026-05-04 19:53 51.29090 6.78042 131 ft 2 kts 53°
2026-05-04 19:53 51.29114 6.78090 133 ft 7 kts 52°
2026-05-04 19:54 51.29140 6.78142 134 ft 5 kts 51°
2026-05-04 19:54 51.29158 6.78178 135 ft 3 kts 51°
2026-05-04 19:54 51.29179 6.78223 137 ft 8 kts 52°
2026-05-04 19:54 51.29222 6.78312 140 ft 11 kts 53°
2026-05-04 19:55 51.29263 6.78400 144 ft 0 kts 53°
2026-05-04 19:57 51.29267 6.78409 144 ft 5 kts 53°
2026-05-04 19:57 51.29308 6.78495 148 ft 12 kts 52°
2026-05-04 19:57 51.29327 6.78533 150 ft 0 kts 46°
2026-05-04 20:00 51.29327 6.78534 150 ft 0 kts 46°
2026-05-04 20:00 51.29334 6.78544 150 ft 1 kts 41°
2026-05-04 20:01 51.29337 6.78547 150 ft 1 kts 40°
2026-05-04 20:01 51.29355 6.78564 151 ft 4 kts 22°
2026-05-04 20:01 51.29373 6.78571 152 ft 2 kts 10°
2026-05-04 20:01 51.29378 6.78572 152 ft 0 kts
2026-05-04 20:02 51.29392 6.78573 152 ft 4 kts
2026-05-04 20:02 51.29419 6.78571 152 ft 4 kts 355°
2026-05-04 20:02 51.29439 6.78567 152 ft 2 kts 353°
2026-05-04 20:02 51.29444 6.78566 152 ft 0 kts 353°
2026-05-04 20:03 51.29459 6.78563 152 ft 5 kts 352°
2026-05-04 20:03 51.29503 6.78556 153 ft 6 kts 355°
2026-05-04 20:03 51.29530 6.78534 153 ft 4 kts 311°
2026-05-04 20:04 51.29528 6.78490 152 ft 1 kts 237°
2026-05-04 20:04 51.29521 6.78474 151 ft 1 kts 234°
2026-05-04 20:04 51.29520 6.78473 151 ft 0 kts 234°
2026-05-04 20:06 51.29489 6.78404 149 ft 30 kts 233°
2026-05-04 20:06 51.29216 6.77835 137 ft 96 kts 233°
2026-05-04 20:06 51.28702 6.76758 131 ft 144 kts 234°
2026-05-04 20:06 51.28075 6.75290 417 ft 160 kts 236°
2026-05-04 20:07 51.27487 6.73910 1206 ft 147 kts 234°
2026-05-04 20:07 51.26926 6.72507 1806 ft 152 kts 247°
2026-05-04 20:07 51.26814 6.70771 2243 ft 170 kts 281°
2026-05-04 20:07 51.27336 6.68957 2651 ft 190 kts 296°
2026-05-04 20:08 51.27990 6.66996 3082 ft 210 kts 296°
2026-05-04 20:08 51.28710 6.64835 3433 ft 233 kts 296°
2026-05-04 20:08 51.29502 6.62444 3884 ft 254 kts 296°
2026-05-04 20:08 51.30355 6.59871 4502 ft 267 kts 296°
2026-05-04 20:09 51.31226 6.57241 5386 ft 269 kts 296°
2026-05-04 20:09 51.32109 6.54572 6245 ft 273 kts 297°
2026-05-04 20:09 51.33002 6.51870 7053 ft 277 kts 297°
2026-05-04 20:09 51.33910 6.49122 7846 ft 281 kts 297°
2026-05-04 20:10 51.34831 6.46334 8654 ft 285 kts 297°
2026-05-04 20:10 51.35764 6.43512 9466 ft 290 kts 297°
2026-05-04 20:10 51.36462 6.40482 10215 ft 295 kts 277°
2026-05-04 20:10 51.36367 6.37117 10493 ft 314 kts 254°
2026-05-04 20:11 51.35482 6.33808 10724 ft 335 kts 240°
2026-05-04 20:11 51.34288 6.30612 11298 ft 341 kts 237°
2026-05-04 20:11 51.33027 6.27370 12049 ft 345 kts 238°
2026-05-04 20:11 51.31786 6.24068 12778 ft 348 kts 239°
2026-05-04 20:12 51.30565 6.20692 13507 ft 352 kts 239°
2026-05-04 20:12 51.29356 6.17264 14165 ft 356 kts 240°
2026-05-04 20:12 51.28144 6.13790 14835 ft 358 kts 240°
2026-05-04 20:12 51.26943 6.10300 15494 ft 361 kts 241°
2026-05-04 20:13 51.25793 6.06721 16138 ft 363 kts 242°
2026-05-04 20:13 51.24656 6.03092 16783 ft 366 kts 242°
2026-05-04 20:13 51.23536 5.99423 17415 ft 369 kts 246°
2026-05-04 20:13 51.22719 5.95521 18038 ft 374 kts 255°
2026-05-04 20:14 51.22322 5.91453 18598 ft 378 kts 264°
2026-05-04 20:14 51.22234 5.87242 19134 ft 381 kts 266°
2026-05-04 20:14 51.22149 5.83004 19677 ft 383 kts 266°
2026-05-04 20:14 51.22053 5.78729 20215 ft 386 kts 266°
2026-05-04 20:15 51.21952 5.74433 20741 ft 389 kts 266°
2026-05-04 20:15 51.21847 5.70105 21253 ft 392 kts 265°
2026-05-04 20:15 51.21739 5.65751 21766 ft 394 kts 265°
2026-05-04 20:15 51.21629 5.61364 22270 ft 397 kts 265°
2026-05-04 20:16 51.21513 5.56946 22774 ft 400 kts 265°
2026-05-04 20:16 51.21371 5.52505 23277 ft 403 kts 265°
2026-05-04 20:16 51.21217 5.48037 23748 ft 405 kts 265°
2026-05-04 20:16 51.21064 5.43603 24183 ft 406 kts 265°
2026-05-04 20:17 51.20908 5.39100 24619 ft 408 kts 265°
2026-05-04 20:17 51.20752 5.34576 25040 ft 410 kts 265°
2026-05-04 20:17 51.20594 5.30017 25452 ft 412 kts 265°
2026-05-04 20:17 51.20434 5.25453 25871 ft 413 kts 264°
2026-05-04 20:18 51.20272 5.20863 26249 ft 415 kts 264°
2026-05-04 20:18 51.20107 5.16252 26627 ft 417 kts 264°
2026-05-04 20:18 51.19940 5.11625 27005 ft 419 kts 264°
2026-05-04 20:18 51.19769 5.06968 27370 ft 421 kts 264°
2026-05-04 20:19 51.19597 5.02288 27722 ft 423 kts 264°
2026-05-04 20:19 51.19425 4.97598 28075 ft 425 kts 265°
2026-05-04 20:19 51.19283 4.92868 28403 ft 427 kts 265°
2026-05-04 20:19 51.19153 4.88130 28732 ft 429 kts 265°
2026-05-04 20:20 51.19024 4.83423 29037 ft 431 kts 265°
2026-05-04 20:20 51.18872 4.78633 29343 ft 433 kts 265°
2026-05-04 20:20 51.18695 4.73832 29649 ft 434 kts 264°
2026-05-04 20:20 51.18511 4.69026 29933 ft 436 kts 264°
2026-05-04 20:21 51.18325 4.64181 30177 ft 439 kts 264°
2026-05-04 20:21 51.18138 4.59317 30430 ft 440 kts 264°
2026-05-04 20:21 51.17759 4.49518 30938 ft 444 kts 264°
2026-05-04 20:22 51.17566 4.44607 31241 ft 444 kts 264°
2026-05-04 20:22 51.17372 4.39699 31605 ft 443 kts 264°
2026-05-04 20:22 51.17177 4.34807 31823 ft 442 kts 264°
2026-05-04 20:22 51.16980 4.29941 31925 ft 440 kts 264°
2026-05-04 20:23 51.16884 4.20225 31967 ft 443 kts 274°
2026-05-04 20:23 51.18233 4.10629 31969 ft 447 kts 288°
2026-05-04 20:24 51.20349 4.01292 31972 ft 447 kts 287°
2026-05-04 20:24 51.22433 3.91945 31974 ft 447 kts 287°
2026-05-04 20:25 51.24512 3.82574 31977 ft 448 kts 287°
2026-05-04 20:25 51.26585 3.73189 31980 ft 448 kts 287°
2026-05-04 20:26 51.28651 3.63799 31985 ft 448 kts 287°
2026-05-04 20:26 51.30710 3.54398 31987 ft 448 kts 287°
2026-05-04 20:27 51.32763 3.44980 31994 ft 448 kts 287°
2026-05-04 20:27 51.34812 3.35542 31998 ft 448 kts 287°
2026-05-04 20:28 51.36982 3.26189 32006 ft 449 kts 289°
2026-05-04 20:28 51.39215 3.16921 32011 ft 448 kts 289°
2026-05-04 20:29 51.41431 3.07578 32013 ft 448 kts 288°
2026-05-04 20:29 51.43629 2.98231 32012 ft 448 kts 288°
2026-05-04 20:30 51.45818 2.88878 32013 ft 448 kts 288°
2026-05-04 20:30 51.47986 2.79575 32010 ft 447 kts 288°
2026-05-04 20:31 51.50158 2.70214 32012 ft 447 kts 288°
2026-05-04 20:31 51.52319 2.60858 32010 ft 447 kts 288°
2026-05-04 20:32 51.54473 2.51487 32012 ft 446 kts 288°
2026-05-04 20:32 51.56616 2.42127 32017 ft 446 kts 288°
2026-05-04 20:33 51.58733 2.32829 32021 ft 445 kts 288°
2026-05-04 20:33 51.60855 2.23505 31435 ft 443 kts 288°
2026-05-04 20:34 51.61915 2.18829 30619 ft 447 kts 288°
2026-05-04 20:34 51.62982 2.14110 29585 ft 452 kts 288°
2026-05-04 20:34 51.64062 2.09323 28546 ft 456 kts 288°
2026-05-04 20:34 51.65140 2.04528 27845 ft 452 kts 288°
2026-05-04 20:35 51.66200 1.99796 27191 ft 447 kts 288°
2026-05-04 20:35 51.67251 1.95097 26544 ft 443 kts 288°
2026-05-04 20:35 51.68287 1.90450 25902 ft 439 kts 288°
2026-05-04 20:35 51.69317 1.85826 25281 ft 435 kts 288°
2026-05-04 20:36 51.70321 1.81308 24667 ft 431 kts 288°
2026-05-04 20:36 51.71328 1.76763 24073 ft 428 kts 288°
2026-05-04 20:36 51.72323 1.72265 23440 ft 425 kts 288°
2026-05-04 20:36 51.73311 1.67793 22773 ft 421 kts 288°
2026-05-04 20:37 51.74127 1.63312 22232 ft 412 kts 279°
2026-05-04 20:37 51.74461 1.58755 21672 ft 405 kts 270°
2026-05-04 20:37 51.74323 1.54250 21153 ft 398 kts 263°
2026-05-04 20:37 51.74026 1.49835 20631 ft 393 kts 263°
2026-05-04 20:38 51.73744 1.45462 20033 ft 391 kts 263°
2026-05-04 20:38 51.73471 1.41193 19595 ft 384 kts 263°
2026-05-04 20:38 51.73195 1.36908 19048 ft 382 kts 263°
2026-05-04 20:38 51.72919 1.32675 18525 ft 379 kts 263°
2026-05-04 20:39 51.72643 1.28470 18026 ft 374 kts 263°
2026-05-04 20:39 51.72369 1.24326 17558 ft 369 kts 263°
2026-05-04 20:39 51.72095 1.20217 17049 ft 365 kts 263°
2026-05-04 20:39 51.71823 1.16167 16599 ft 360 kts 263°
2026-05-04 20:40 51.71645 1.13521 16359 ft 356 kts 263°
2026-05-04 20:40 51.71294 1.08322 16194 ft 348 kts 263°
2026-05-04 20:40 51.71035 1.04503 16081 ft 336 kts 263°
2026-05-04 20:40 51.70785 1.00841 16042 ft 321 kts 263°
2026-05-04 20:41 51.70623 0.98466 16043 ft 310 kts 263°
2026-05-04 20:41 51.70395 0.95141 16040 ft 294 kts 263°
2026-05-04 20:41 51.70174 0.91937 15914 ft 284 kts 263°
2026-05-04 20:41 51.69955 0.88789 15555 ft 282 kts 263°
2026-05-04 20:42 51.69735 0.85644 15155 ft 282 kts 263°
2026-05-04 20:42 51.69515 0.82508 14789 ft 280 kts 263°
2026-05-04 20:42 51.69296 0.79389 14426 ft 279 kts 263°
2026-05-04 20:42 51.69077 0.76289 14061 ft 278 kts 263°
2026-05-04 20:43 51.68858 0.73197 13695 ft 277 kts 263°
2026-05-04 20:43 51.68640 0.70129 13342 ft 274 kts 263°
2026-05-04 20:43 51.68424 0.67085 12972 ft 273 kts 263°
2026-05-04 20:43 51.68210 0.64094 12600 ft 271 kts 263°
2026-05-04 20:44 51.67994 0.61083 12251 ft 269 kts 263°
2026-05-04 20:44 51.67780 0.58103 11888 ft 267 kts 263°
2026-05-04 20:44 51.67565 0.55138 11534 ft 265 kts 263°
2026-05-04 20:44 51.67351 0.52188 11197 ft 264 kts 263°
2026-05-04 20:45 51.67138 0.49264 10845 ft 263 kts 263°
2026-05-04 20:45 51.66925 0.46345 10501 ft 261 kts 263°
2026-05-04 20:45 51.66713 0.43448 10167 ft 260 kts 263°
2026-05-04 20:45 51.66500 0.40560 9821 ft 258 kts 263°
2026-05-04 20:46 51.66289 0.37701 9476 ft 256 kts 263°
2026-05-04 20:46 51.66078 0.34861 9140 ft 254 kts 263°
2026-05-04 20:46 51.65868 0.32044 8781 ft 253 kts 263°
2026-05-04 20:46 51.65660 0.29245 8447 ft 251 kts 263°
2026-05-04 20:47 51.65451 0.26464 8127 ft 249 kts 263°
2026-05-04 20:47 51.65247 0.23738 7808 ft 247 kts 263°
2026-05-04 20:47 51.65041 0.21002 7473 ft 246 kts 263°
2026-05-04 20:47 51.64835 0.18284 7198 ft 242 kts 263°
2026-05-04 20:48 51.64634 0.15632 7095 ft 239 kts 264°
2026-05-04 20:48 51.64445 0.12915 7045 ft 246 kts 265°
2026-05-04 20:48 51.64296 0.10194 6971 ft 242 kts 265°
2026-05-04 20:48 51.64160 0.07494 6700 ft 242 kts 266°
2026-05-04 20:49 51.64022 0.04801 6385 ft 241 kts 266°
2026-05-04 20:49 51.63879 0.02122 6056 ft 239 kts 266°
2026-05-04 20:49 51.63734 -0.00544 5703 ft 239 kts 266°
2026-05-04 20:49 51.63587 -0.03181 5383 ft 238 kts 266°
2026-05-04 20:50 51.63438 -0.05821 5115 ft 234 kts 266°
2026-05-04 20:50 51.63291 -0.08417 5017 ft 236 kts 266°
2026-05-04 20:50 51.63142 -0.11065 5002 ft 238 kts 266°
2026-05-04 20:50 51.62992 -0.13722 5001 ft 237 kts 266°
2026-05-04 20:51 51.62841 -0.16367 5003 ft 238 kts 266°
2026-05-04 20:51 51.62689 -0.19023 5003 ft 239 kts 266°
2026-05-04 20:51 51.62537 -0.21676 5001 ft 238 kts 266°
2026-05-04 20:51 51.62383 -0.24321 4996 ft 238 kts 266°
2026-05-04 20:52 51.62230 -0.26963 5002 ft 237 kts 266°
2026-05-04 20:52 51.62076 -0.29612 5002 ft 238 kts 266°
2026-05-04 20:52 51.61921 -0.32264 5000 ft 237 kts 266°
2026-05-04 20:52 51.61767 -0.34921 4974 ft 239 kts 265°
2026-05-04 20:53 51.61612 -0.37568 4972 ft 237 kts 265°
2026-05-04 20:53 51.61454 -0.40230 4979 ft 239 kts 265°
2026-05-04 20:53 51.61299 -0.42844 4972 ft 237 kts 265°
2026-05-04 20:53 51.61142 -0.45487 4977 ft 239 kts 265°
2026-05-04 20:54 51.60983 -0.48158 4973 ft 239 kts 265°
2026-05-04 20:54 51.60823 -0.50819 4975 ft 239 kts 265°
2026-05-04 20:54 51.60663 -0.53479 4970 ft 238 kts 265°
2026-05-04 20:54 51.60502 -0.56128 4976 ft 238 kts 265°
2026-05-04 20:55 51.60341 -0.58786 4975 ft 239 kts 265°
2026-05-04 20:55 51.60180 -0.61440 4978 ft 238 kts 265°
2026-05-04 20:55 51.60017 -0.64104 4976 ft 239 kts 265°
2026-05-04 20:55 51.59854 -0.66768 4977 ft 239 kts 265°
2026-05-04 20:56 51.59692 -0.69392 4979 ft 239 kts 265°
2026-05-04 20:56 51.59527 -0.72053 4978 ft 238 kts 265°
2026-05-04 20:56 51.59361 -0.74714 4975 ft 239 kts 265°
2026-05-04 20:56 51.59105 -0.77345 4900 ft 238 kts 250°
2026-05-04 20:57 51.58181 -0.79537 4568 ft 241 kts 220°
2026-05-04 20:57 51.56675 -0.80684 4180 ft 243 kts 188°
2026-05-04 20:57 51.54988 -0.80605 3815 ft 244 kts 170°
2026-05-04 20:57 51.53326 -0.80107 3507 ft 242 kts 168°
2026-05-04 20:58 51.51669 -0.79667 3191 ft 241 kts 171°
2026-05-04 20:58 51.50036 -0.79287 3016 ft 231 kts 162°
2026-05-04 20:58 51.48717 -0.78065 2900 ft 213 kts 129°
2026-05-04 20:58 51.48009 -0.76131 2812 ft 200 kts 105°
2026-05-04 20:59 51.47733 -0.73925 2726 ft 202 kts 93°
2026-05-04 20:59 51.47670 -0.71687 2636 ft 197 kts 89°
2026-05-04 20:59 51.47674 -0.69591 2586 ft 180 kts 88°
2026-05-04 20:59 51.47680 -0.67639 2435 ft 170 kts 88°
2026-05-04 21:00 51.47686 -0.65780 2236 ft 162 kts 87°
2026-05-04 21:00 51.47692 -0.64038 2033 ft 150 kts 87°
2026-05-04 21:00 51.47697 -0.62441 1858 ft 137 kts 86°
2026-05-04 21:00 51.47704 -0.60925 1674 ft 136 kts 86°
2026-05-04 21:01 51.47709 -0.59413 1487 ft 135 kts 86°
2026-05-04 21:01 51.47715 -0.57906 1297 ft 134 kts 86°
2026-05-04 21:01 51.47721 -0.56398 1123 ft 136 kts 87°
2026-05-04 21:01 51.47726 -0.54876 955 ft 137 kts 87°
2026-05-04 21:02 51.47732 -0.53335 762 ft 138 kts 86°
2026-05-04 21:02 51.47741 -0.51835 553 ft 136 kts 88°
2026-05-04 21:02 51.47740 -0.50314 342 ft 136 kts 86°
2026-05-04 21:02 51.47746 -0.48788 173 ft 138 kts 87°
2026-05-04 21:03 51.47756 -0.47275 89 ft 124 kts 90°
2026-05-04 21:03 51.47759 -0.46214 87 ft 66 kts 90°
2026-05-04 21:03 51.47761 -0.45637 85 ft 35 kts 90°
2026-05-04 21:03 51.47702 -0.45475 87 ft 16 kts 169°
2026-05-04 21:04 51.47648 -0.45470 86 ft 0 kts 179°
2026-05-04 21:05 51.47643 -0.45470 86 ft 3 kts 180°
2026-05-04 21:05 51.47593 -0.45474 90 ft 12 kts 181°
2026-05-04 21:05 51.47509 -0.45388 91 ft 20 kts 99°
2026-05-04 21:05 51.47513 -0.45133 86 ft 26 kts 89°
2026-05-04 21:06 51.47511 -0.44820 90 ft 29 kts 90°
2026-05-04 21:06 51.47462 -0.44565 90 ft 24 kts 168°
2026-05-04 21:06 51.47292 -0.44557 86 ft 25 kts 179°
2026-05-04 21:06 51.47112 -0.44554 86 ft 26 kts 179°
2026-05-04 21:07 51.47031 -0.44575 89 ft 2 kts 280°
2026-05-04 21:07 51.47035 -0.44613 90 ft 5 kts 276°
2026-05-04 21:07 51.47037 -0.44667 86 ft 4 kts 269°
2026-05-04 21:07 51.47037 -0.44680 86 ft 0 kts 269°